Home > Weather > Lakeland > Past weeks

Flag for U.S.A. Weather for the Past 2 Weeks in Lakeland, Florida, U.S.A.

Now
72 °F

Passing clouds.


Feels Like: 77 °F
Forecast: 44 / 72 °F
Wind: 12 mph from West

Location: Lakeland Regional

Current Time: Feb 12, 2016 at 4:45:25 PM

Latest Report: Feb 12, 2016 at 3:55 PM


Visibility: 10 mi

Pressure: 30.21 "Hg

Humidity: 53%

Dew point: 54 °F

Location of LakelandLocation

Historic Weather in Lakeland — Graph

°F

Lakeland Temperature Yesterday

Maximum temperature yesterday: 66 °F (at 2:55 PM)
Minimum temperature yesterday: 36 °F (at 12:35 AM)
Average temperature yesterday: 47 °F

High & Low Weather Summary for the Past Weeks

 TemperatureHumidityPressure
High82 °F (Feb 2, 3:45 PM)100% (Jan 28, 2:50 PM)30.36 "Hg (Jan 28, 2:50 PM)
Low36 °F (Feb 8, 3:15 AM)27% (Feb 5, 2:50 PM)29.73 "Hg (Jan 28, 3:50 PM)
Average56 °F78%30.10 "Hg
* Reported Jan 28 2:50 PM — Feb 12 2:50 PM, Lakeland, Weather by CustomWeather, © 2016

Note: Actual official high and low records may vary slightly from our data, if they occured in-between our weather recording intervals... More about our weather records

Advertising

Lakeland Weather History for the Previous 24 Hours

 ConditionsComfort  
Time TempWeatherWind HumidityBarometerVisibility
2:50 PM
Fri, Feb 12
72 °FPassing clouds.9 mph53%30.21 "Hg10 mi
1:50 PM70 °FPassing clouds.12 mph57%30.24 "Hg10 mi
12:46 PM70 °FThunderstorms. Cloudy.N/A57%30.26 "HgN/A
11:46 AM70 °FPassing clouds.7 mph57%30.30 "Hg10 mi
10:48 AM66 °FSunny.8 mph64%30.32 "Hg10 mi
9:46 AM61 °FSunny.5 mph68%30.31 "Hg10 mi
8:52 AM52 °FSunny.3 mph100%30.31 "Hg7 mi
7:55 AM45 °FFog.No wind100%30.30 "Hg2 mi
6:45 AM43 °FFog.No wind100%30.30 "Hg0 mi
5:45 AM43 °FFog.No wind100%30.28 "Hg0 mi
4:35 AM41 °FFog.No wind100%30.26 "Hg0 mi
4:15 AM41 °FFog.No wind100%30.26 "Hg0 mi
3:55 AM41 °FFog.No wind100%30.26 "Hg2 mi
3:15 AM41 °FClear.No wind100%30.27 "Hg7 mi
2:55 AM43 °FClear.No wind93%30.27 "Hg10 mi
2:35 AM43 °FClear.No wind93%30.27 "Hg7 mi
2:15 AM43 °FClear.No wind93%30.28 "Hg10 mi
1:55 AM43 °FClear.No wind93%30.29 "Hg10 mi
1:35 AM43 °FClear.No wind93%30.29 "Hg10 mi
1:15 AM43 °FClear.No wind93%30.30 "Hg10 mi
12:35 AM45 °FClear.No wind93%30.30 "Hg10 mi
12:15 AM46 °FClear.No wind87%30.30 "Hg10 mi
11:55 PM
Thu, Feb 11
45 °FFog.No wind93%30.31 "Hg5 mi
11:15 PM46 °FClear.No wind87%30.31 "Hg10 mi
10:55 PM46 °FClear.No wind87%30.31 "Hg10 mi
10:15 PM48 °FClear.No wind87%30.31 "Hg10 mi
9:55 PM46 °FClear.5 mph87%30.31 "Hg10 mi
9:15 PM52 °FClear.No wind77%30.30 "Hg10 mi
8:48 PM52 °FClear.No wind77%30.29 "Hg10 mi
7:50 PM57 °FClear.3 mph63%30.29 "Hg10 mi
6:50 PM61 °FClear.5 mph52%30.27 "Hg10 mi
5:50 PM66 °FSunny.No wind37%30.26 "Hg10 mi
Weather by CustomWeather, © 2016

See weather overviewHow to use our weather pages